Weather in Bol'shoy Uluy

Russia / Krasnoyarsk Krai     56°39′16″N   90°34′17″E
temp.,
°C
wind,
m/s
gust,
m/s
humid.,
%
clouds,
%
prec.,
mm/h
press.,
hPa
HPBL,
m
27 january, thu
thu2701:00−14ssw1198100 0.3 10309
04:00−16ssw1199100 0.0 103118
07:00−14sw119892 0.3 103317
10:00−18ssw229966 0.0 103535
13:00−11sw248959 0.0 1035286
16:00−11s119416 0.0 103615
19:00−20s2210080 0.0 10389
22:00−20s1110091 0.0 103910
28 january, fri
fri2801:00−22s2210073 0.0 103910
04:00−24s1110095 0.0 10399
07:00−24sse1110098 0.0 103912
10:00−23s22100100 0.0 103941
13:00−15ssw139372 0.1 1037166
16:00−14sse11955 0.0 103633
19:00−22ssw1110054 0.0 10369
22:00−25s2210081 0.0 103612
29 january, sat
sat2901:00−22s2399100 0.0 103548
04:00−24s2210056 0.0 103526
07:00−26s2210033 0.0 103631
10:00−23s249968 0.0 103658
13:00−14s238997 0.0 1034187
16:00−13s2493100 0.0 1034167
19:00−19s229881 0.0 103537
22:00−20s239866 0.0 103550
30 january, sun
sun3001:00−22s239876 0.0 103542
04:00−22s239794 0.0 103544
07:00−23s229876 0.0 103533
10:00−21s239579 0.0 103563
13:00−14s23825 0.0 1033184
16:00−13sse129034 0.0 103395
19:00−20sse119946 0.0 10349
22:00−23sse11995 0.0 10339
31 january, mon
mon3101:00−24sse11975 0.0 10339
04:00−25sse11975 0.0 10339
07:00−26sse11975 0.0 10339
10:00−23sse12945 0.0 103437
13:00−14sse12785 0.0 1032158
16:00−13se11885 0.0 103225
19:00−20se11985 0.0 10349
22:00−23sse1110030 0.0 10359